Volver al catálogo

IRIDIUM 164

ActivoComunicacionesPO
NORAD 43577·PAYLOAD·🇺🇸 United States

Lanzado Jul 25, 2018 desde Vandenberg Space Force Base

Loading…

Próximos Pases (próximas 24 horas)

TLE

ActualizadoSource: CelesTrak SupGP

Época: Sep 14, 2026, 22:08 UTC

1 43577C 18061J   26257.92256944 -.00002173  00000+0 -77687-3 0  2574
2 43577  86.4012  19.2391 0002078  95.6921  69.9693 14.34220671    16

Sigue IRIDIUM 164 en tiempo real con AllMySat

Download on the App Store